[[{"header":{"parameterUnit":"m.s-1","parameterCategory":1,"la1":30.2991,"la2":30.254,"lo1":-89.0895,"lo2":-89.0444,"dy":0.0017,"dx":0.0017,"nx":28,"ny":28,"refTime":"2025-12-11T03:00:00:Z","depth":0,"parameterNumber":2,"parameterNumberName":"U-component_of_WINDS"},"data":[0,0,0,0,0,0,0,0,0,0,0,0,0,0,0,0,0,0,0,0,0,0,0,0,0,0,0,0,0,0,0,0,0,0,0,0,0,0,0,0,0,0,0,0,0,0,0,0,0,0,0,0,0,0,0,0,0,0,-0.4017,-0.4017,0,-0.4003,-0.4003,-0.4003,-0.3949,-0.3948,-0.3946,-0.3945,-0.3933,-0.3934,-0.3935,0,0,0,0,0,0,0,0,0,0,0,0,0,-0.4002,-0.4003,-0.4017,-0.4017,-0.4017,-0.4003,-0.4003,-0.4003,-0.3949,-0.3948,-0.3946,-0.3945,-0.3933,-0.3934,-0.3935,0,0,0,0,0,0,0,0,0,0,0,0,0,-0.4,-0.4003,-0.4017,-0.3989,-0.3986,-0.4003,-0.4003,-0.4003,-0.3949,-0.3948,-0.3946,-0.3944,-0.3933,-0.3934,-0.3935,-0.398,0,0,-0.3939,-0.3939,0,0,0,0,0,0,0,0,-0.4001,-0.4001,-0.3993,-0.3991,-0.3988,-0.3976,-0.3993,-0.3995,-0.395,-0.3963,-0.3945,-0.3943,-0.3949,-0.3949,-0.395,-0.3979,-0.3978,-0.3939,-0.394,-0.394,-0.394,0,0,0,0,0,0,0,-0.4001,-0.4001,-0.4012,-0.3993,-0.399,-0.3978,-0.3975,-0.3993,-0.3967,-0.3962,-0.3958,-0.3957,-0.3947,-0.3949,-0.395,-0.3978,-0.3939,-0.394,-0.3941,-0.3941,-0.4045,-0.4047,0,0,0,0,0,0,-0.4005,-0.4002,-0.4012,-0.4011,-0.399,-0.3979,-0.3977,-0.3982,-0.3966,-0.3962,-0.3959,-0.3955,-0.3948,-0.3948,-0.3949,-0.4001,-0.394,-0.3941,-0.3942,-0.4043,-0.4046,-0.4048,0,0,0,0,0,0,-0.4004,-0.4006,-0.4013,-0.4005,-0.4005,-0.3982,-0.3987,-0.3982,-0.3984,-0.3964,-0.3959,-0.3965,-0.3946,-0.3947,-0.3973,-0.4,-0.3942,-0.3943,-0.4041,-0.4044,-0.4047,-0.4106,0,0,0,0,0,0,-0.4004,-0.4006,-0.4022,-0.4006,-0.4006,-0.4036,-0.3989,-0.3983,-0.3986,-0.3981,-0.3969,-0.3965,-0.3945,-0.3971,-0.3974,-0.4001,-0.3944,-0.4038,-0.4042,-0.4046,-0.4102,-0.4111,-0.4119,0,0,0,0,0,-0.4004,-0.404,-0.4023,-0.4025,-0.4025,-0.4038,-0.4037,-0.4013,-0.3988,-0.4005,-0.3992,-0.3965,-0.3997,-0.3974,-0.3977,-0.4005,-0.4036,-0.4041,-0.4045,-0.4098,-0.4109,-0.4119,0,0,0,0,0,0,-0.406,-0.4037,-0.4018,-0.405,-0.4046,-0.4028,-0.4048,-0.4025,-0.4029,-0.4024,-0.3994,-0.3992,-0.4022,-0.4016,-0.3991,-0.4048,-0.4012,-0.4018,-0.4051,-0.4062,-0.407,-0.4072,-0.3945,0,0,0,0,0,-0.4076,-0.4087,-0.4066,-0.4096,-0.4095,-0.4072,-0.4077,-0.4058,-0.4053,-0.4052,-0.4041,-0.4038,-0.4047,-0.4054,-0.4061,-0.41,-0.4098,-0.4121,-0.413,-0.4137,-0.4142,-0.4164,-0.4175,-0.4063,-0.4063,-0.4063,0,0,-0.4109,-0.4098,-0.4106,-0.4107,-0.4102,-0.4116,-0.4071,-0.4087,-0.4097,-0.4054,-0.4078,-0.407,-0.4065,-0.4098,-0.4112,-0.4094,-0.4173,-0.4143,-0.4148,-0.415,-0.417,-0.4181,-0.419,-0.4066,-0.4065,-0.4065,0,0,-0.4176,-0.4168,-0.4193,-0.4189,-0.4181,-0.4166,-0.4172,-0.4158,-0.4151,-0.4174,-0.4143,-0.4155,-0.4171,-0.417,-0.4171,-0.4239,-0.4216,-0.4243,-0.4288,-0.431,-0.4319,-0.4326,-0.4352,-0.4362,-0.4248,-0.4248,-0.4248,0,-0.4219,-0.4236,-0.4209,-0.4227,-0.4229,-0.419,-0.4216,-0.4214,-0.421,-0.4213,-0.4192,-0.4212,-0.4206,-0.4239,-0.4256,-0.4258,-0.4265,-0.4244,-0.4319,-0.4327,-0.4334,-0.4358,-0.4368,-0.4251,-0.4251,-0.4251,-0.425,0,-0.429,-0.4303,-0.4324,-0.432,-0.4325,-0.4347,-0.4324,-0.4332,-0.4313,-0.4301,-0.4326,-0.4317,-0.4323,-0.4329,-0.4311,-0.436,-0.4349,-0.4324,-0.4288,-0.4348,-0.4371,-0.438,-0.4256,-0.4255,-0.4254,-0.4253,0,0,-0.4392,-0.4373,-0.4382,-0.438,-0.437,-0.438,-0.4401,-0.4406,-0.4414,-0.4413,-0.4431,-0.4446,-0.4424,-0.4425,-0.4407,-0.4426,-0.4483,-0.4399,-0.4399,-0.4416,-0.4539,-0.4559,-0.457,-0.4467,-0.4469,-0.447,-0.454,0,-0.4457,-0.4491,-0.4467,-0.4505,-0.4518,-0.4482,-0.4501,-0.4498,-0.4487,-0.4497,-0.4485,-0.4497,-0.4466,-0.4467,-0.4484,-0.4473,-0.4508,-0.4467,-0.4485,-0.4486,-0.4489,-0.4581,-0.4602,-0.4668,-0.4548,-0.455,-0.4551,0,-0.4537,-0.454,-0.4579,-0.4568,-0.4572,-0.4589,-0.4593,-0.4602,-0.4599,-0.4589,-0.4592,-0.4569,-0.4591,-0.4554,-0.4584,-0.4557,-0.4564,-0.4559,-0.4561,-0.4563,-0.4523,-0.4587,-0.4688,-0.4698,-0.4564,-0.4563,-0.4562,0,-0.461,-0.4623,-0.4648,-0.4648,-0.4635,-0.4648,-0.4643,-0.4637,-0.4643,-0.4646,-0.4649,-0.4656,-0.466,-0.4666,-0.4646,-0.4621,-0.4679,-0.4641,-0.4674,-0.4675,-0.4688,-0.4688,-0.4793,-0.4691,-0.469,-0.469,-0.469,0,-0.4686,-0.4712,-0.4681,-0.4697,-0.4725,-0.4699,-0.4728,-0.472,-0.4715,-0.473,-0.47,-0.4715,-0.4687,-0.47,-0.4685,-0.4713,-0.4715,-0.4709,-0.4705,-0.4713,-0.4714,-0.4717,-0.4712,-0.4693,-0.4692,-0.4692,-0.4691,0,-0.4771,-0.4751,-0.4778,-0.4763,-0.476,-0.4782,-0.477,-0.4786,-0.4773,-0.4792,-0.4795,-0.4776,-0.479,-0.477,-0.4782,-0.4772,-0.4811,-0.4799,-0.4812,-0.4809,-0.4844,-0.4842,-0.4956,-0.4971,-0.4857,-0.4859,-0.4859,0,-0.4822,-0.4841,-0.4829,-0.4836,-0.4833,-0.4845,-0.4851,-0.4825,-0.4832,-0.483,-0.4846,-0.4857,-0.4864,-0.4888,-0.4875,-0.4885,-0.4874,-0.4913,-0.4875,-0.4882,-0.4876,-0.4876,-0.4878,-0.4921,-0.4923,-0.4924,-0.4925,0,-0.4914,-0.4903,-0.4911,-0.4916,-0.4923,-0.4926,-0.4927,-0.4935,-0.4909,-0.4919,-0.4932,-0.4937,-0.4949,-0.4961,-0.4967,-0.4964,-0.4941,-0.4937,-0.4945,-0.4954,-0.4961,-0.4959,-0.4835,-0.4935,-0.4934,-0.4933,-0.4932,-0.4932,-0.4984,-0.5,-0.4995,-0.5005,-0.5003,-0.5005,-0.5019,-0.5008,-0.5018,-0.5025,-0.501,-0.5028,-0.5025,-0.5031,-0.503,-0.5044,-0.5027,-0.5039,-0.5042,-0.5046,-0.5052,-0.4958,-0.5045,-0.5045,-0.5045,-0.5044,-0.5044,0,-0.5076,-0.5071,-0.508,-0.5083,-0.5091,-0.5068,-0.5068,-0.5077,-0.5093,-0.5092,-0.51,-0.5116,-0.5127,-0.5117,-0.5126,-0.514,-0.513,-0.5144,-0.5143,-0.5143,-0.5066,-0.5058,-0.5152,-0.5152,-0.5152,-0.5152,-0.5152,-0.5152,-0.5125,-0.5151,-0.514,-0.5166,-0.5161,-0.5177,-0.5179,-0.5182,-0.5181,-0.52,-0.5209,-0.5202,-0.5197,-0.5207,-0.5217,-0.5214,-0.5219,-0.5237,-0.523,-0.5159,-0.5148,-0.5138,-0.5131,-0.5238,-0.5238,-0.5307,-0.5307,-0.5308]},{"header":{"parameterUnit":"m.s-1","parameterCategory":1,"la1":30.2991,"la2":30.254,"lo1":-89.0895,"lo2":-89.0444,"dy":0.0017,"dx":0.0017,"nx":28,"ny":28,"refTime":"2025-12-11T03:00:00:Z","depth":0,"parameterNumber":3,"parameterNumberName":"V-component_of_WINDS"},"data":[0,0,0,0,0,0,0,0,0,0,0,0,0,0,0,0,0,0,0,0,0,0,0,0,0,0,0,0,0,0,0,0,0,0,0,0,0,0,0,0,0,0,0,0,0,0,0,0,0,0,0,0,0,0,0,0,0,0,2.377,2.377,0,2.3761,2.376,2.376,2.3732,2.3731,2.3731,2.373,2.372,2.372,2.372,0,0,0,0,0,0,0,0,0,0,0,0,0,2.3763,2.3763,2.377,2.377,2.377,2.3761,2.376,2.376,2.3732,2.3731,2.373,2.373,2.372,2.372,2.372,0,0,0,0,0,0,0,0,0,0,0,0,0,2.3761,2.3763,2.377,2.3755,2.3753,2.3761,2.376,2.376,2.3732,2.3731,2.373,2.3729,2.3719,2.372,2.372,2.3742,0,0,2.3722,2.3722,0,0,0,0,0,0,0,0,2.3761,2.3761,2.3757,2.3756,2.3754,2.3747,2.3754,2.3754,2.3732,2.374,2.373,2.3729,2.3729,2.3729,2.3729,2.3741,2.3741,2.3722,2.3722,2.3722,2.3722,0,0,0,0,0,0,0,2.3761,2.3762,2.3766,2.3757,2.3755,2.3748,2.3747,2.3754,2.374,2.3739,2.3737,2.3737,2.3728,2.3729,2.3729,2.3741,2.3722,2.3722,2.3722,2.3723,2.3768,2.3769,0,0,0,0,0,0,2.3764,2.3762,2.3767,2.3766,2.3755,2.3749,2.3747,2.375,2.374,2.3737,2.3737,2.3735,2.3728,2.3728,2.3728,2.3751,2.3722,2.3723,2.3723,2.3767,2.3768,2.3769,0,0,0,0,0,0,2.3764,2.3765,2.3767,2.3763,2.3763,2.375,2.3753,2.375,2.3751,2.3738,2.3736,2.374,2.3728,2.3727,2.3738,2.3751,2.3723,2.3723,2.3766,2.3768,2.3769,2.3799,0,0,0,0,0,0,2.3764,2.3765,2.3773,2.3764,2.3764,2.3778,2.3754,2.3751,2.3752,2.3749,2.3741,2.3738,2.3727,2.3738,2.3739,2.3751,2.3724,2.3765,2.3767,2.3768,2.3797,2.3801,2.3805,0,0,0,0,0,2.3764,2.3782,2.3774,2.3774,2.3774,2.3779,2.3778,2.3765,2.3753,2.3761,2.3753,2.3739,2.3749,2.3739,2.374,2.3752,2.3764,2.3766,2.3768,2.3795,2.38,2.3805,0,0,0,0,0,0,2.3793,2.3781,2.3771,2.3787,2.3784,2.3774,2.3784,2.3772,2.3772,2.3769,2.3752,2.3751,2.3764,2.3759,2.3748,2.3772,2.3754,2.3757,2.3774,2.3779,2.3783,2.3784,2.3724,0,0,0,0,0,2.3802,2.3807,2.3796,2.3811,2.381,2.3797,2.3799,2.3789,2.3785,2.3783,2.3776,2.3773,2.3775,2.3777,2.3779,2.3796,2.3793,2.3805,2.3809,2.3812,2.3814,2.3822,2.3826,2.3776,2.3776,2.3776,0,0,2.3819,2.3813,2.3817,2.3817,2.3813,2.3818,2.3796,2.3803,2.3807,2.3784,2.3794,2.3788,2.3783,2.3797,2.3803,2.3794,2.3828,2.3815,2.3818,2.3818,2.3824,2.3829,2.3833,2.3778,2.3778,2.3777,0,0,2.3853,2.385,2.3861,2.3858,2.3853,2.3844,2.3847,2.3838,2.3834,2.3843,2.3826,2.383,2.3835,2.3831,2.383,2.3862,2.3849,2.3863,2.3884,2.3892,2.3896,2.3899,2.3909,2.3913,2.3865,2.3866,2.3866,0,2.3876,2.3883,2.3869,2.3876,2.3876,2.3856,2.3867,2.3865,2.3861,2.3861,2.3851,2.3855,2.3851,2.3863,2.3871,2.3871,2.3873,2.3864,2.3896,2.39,2.3903,2.3912,2.3916,2.3867,2.3867,2.3867,2.3867,0,2.391,2.3916,2.3926,2.3921,2.3922,2.3932,2.3919,2.3921,2.3911,2.3903,2.3912,2.3905,2.3905,2.3907,2.3897,2.3917,2.3912,2.39,2.3881,2.3909,2.3918,2.3921,2.387,2.3869,2.3869,2.3868,0,0,2.3963,2.395,2.3954,2.3951,2.3944,2.3947,2.3956,2.3955,2.3957,2.3955,2.396,2.3964,2.3952,2.3951,2.3941,2.3948,2.3972,2.3934,2.3934,2.394,2.3992,2.4,2.4005,2.3963,2.3964,2.3964,2.3992,0,2.3994,2.4007,2.3994,2.401,2.4014,2.3995,2.4002,2.3997,2.399,2.3992,2.3984,2.3987,2.3972,2.397,2.3976,2.3968,2.3982,2.3966,2.3967,2.3967,2.3968,2.4009,2.4019,2.4045,2.3995,2.3996,2.3996,0,2.4032,2.4031,2.4047,2.4037,2.4039,2.4045,2.4043,2.4046,2.404,2.4034,2.4032,2.402,2.4026,2.4009,2.4017,2.4006,2.4006,2.4002,2.4003,2.4002,2.3983,2.4008,2.4053,2.4057,2.4001,2.4001,2.4001,0,2.4068,2.407,2.408,2.4078,2.4068,2.4072,2.4068,2.4061,2.4062,2.4059,2.4059,2.4058,2.4057,2.4056,2.4043,2.4032,2.4052,2.4035,2.4047,2.4047,2.4051,2.4051,2.4095,2.4053,2.4053,2.4053,2.4053,0,2.4103,2.4114,2.4095,2.4101,2.4111,2.4096,2.4107,2.41,2.4095,2.4098,2.4082,2.4086,2.4069,2.407,2.406,2.4067,2.4068,2.4062,2.4059,2.4063,2.4064,2.4062,2.406,2.4054,2.4054,2.4053,2.4053,0,2.4144,2.4132,2.4141,2.413,2.4128,2.4136,2.4126,2.413,2.4122,2.4126,2.4127,2.4113,2.4114,2.4101,2.41,2.4093,2.4104,2.4099,2.4106,2.4104,2.4116,2.4115,2.4161,2.4165,2.4121,2.4121,2.4122,0,2.4167,2.4175,2.4164,2.4165,2.4162,2.4164,2.4164,2.4149,2.4149,2.4143,2.4148,2.4148,2.4146,2.4149,2.4138,2.4137,2.413,2.4146,2.413,2.4133,2.4129,2.4128,2.4128,2.4149,2.415,2.415,2.4151,0,2.4209,2.4203,2.4203,2.4201,2.4201,2.4199,2.4196,2.4198,2.4181,2.4183,2.4183,2.4182,2.418,2.418,2.4176,2.4171,2.4158,2.4156,2.4159,2.4162,2.4166,2.4163,2.4114,2.4155,2.4155,2.4154,2.4154,2.4154,2.4241,2.4246,2.4239,2.424,2.4236,2.4233,2.4236,2.4228,2.4228,2.4225,2.4216,2.4218,2.4211,2.4205,2.4201,2.4202,2.4194,2.4198,2.4198,2.4199,2.4201,2.4166,2.4201,2.4201,2.4201,2.4201,2.4201,0,2.4281,2.4275,2.4276,2.4272,2.4272,2.426,2.4255,2.4256,2.4258,2.4253,2.4252,2.4252,2.4251,2.4241,2.4238,2.4241,2.4234,2.424,2.4239,2.4238,2.4209,2.4207,2.4245,2.4245,2.4245,2.4245,2.4245,2.4245,2.4301,2.4309,2.4302,2.4306,2.4301,2.4302,2.4301,2.4297,2.4293,2.4294,2.4293,2.4286,2.4278,2.4275,2.4273,2.427,2.427,2.4277,2.4272,2.4245,2.424,2.4236,2.4234,2.4278,2.4278,2.4301,2.4301,2.4301]}]]